Location: Bad Dürkheim
(49.4618°N, 8.1724°E)
Time: 21:11:19
(UTC+00:00)

Cosmos 1862 Rocket - Pass Details

Date: 14 June 2025
Orbit: 597 x 628 km, 82.5° (Epoch: 16 July)

Event Time Altitude Azimuth Distance (km) Brightness Sun altitude
Exits shadow 22:11:29 27° 163° (SSE) 1,211 4.4 -15.3°
Maximum altitude 22:13:44 57° 95° (E) 737 3.8 -15.4°
Drops below altitude 10° 22:18:04 10° 17° (NNE) 1,998 7.0 -15.6°
Sets 22:20:19 0° 14° (NNE) 2,903 8.1 -15.7°
